Time,TemperatureF,DewpointF,PressureIn,WindDirection,WindDirectionDegrees,WindSpeedMPH,WindSpeedGustMPH,Humidity,HourlyPrecipIn,Conditions,Clouds,dailyrainin,SoftwareType,DateUTC
2013-01-17 00:00:00,36.0,35.0,30.24,WSW,255,0.0,3.0,97,0.00,,,0.11,weatherlink.com 1.10,2013-01-17 05:00:00,
2013-01-17 00:15:00,35.6,35.0,30.23,North,9,1.0,3.0,96,0.00,,,0.11,weatherlink.com 1.10,2013-01-17 05:15:00,
2013-01-17 00:30:00,35.5,35.0,30.23,NNW,342,0.0,1.0,97,0.00,,,0.11,weatherlink.com 1.10,2013-01-17 05:30:00,
2013-01-17 00:45:00,35.4,35.0,30.24,NW,311,1.0,2.0,97,0.00,,,0.11,weatherlink.com 1.10,2013-01-17 05:45:00,
2013-01-17 01:00:00,35.2,35.0,30.24,SW,232,0.0,5.0,97,0.00,,,0.11,weatherlink.com 1.10,2013-01-17 06:00:00,
2013-01-17 01:15:00,35.0,34.0,30.23,WNW,302,0.0,2.0,97,0.00,,,0.11,weatherlink.com 1.10,2013-01-17 06:15:00,
2013-01-17 01:30:00,34.7,34.0,30.23,SW,218,0.0,4.0,97,0.01,,,0.12,weatherlink.com 1.10,2013-01-17 06:30:00,
2013-01-17 01:45:00,34.6,34.0,30.25,NW,315,2.0,3.0,97,0.01,,,0.12,weatherlink.com 1.10,2013-01-17 06:45:00,
2013-01-17 02:00:00,34.5,34.0,30.25,NNE,25,0.0,3.0,97,0.01,,,0.12,weatherlink.com 1.10,2013-01-17 07:00:00,
2013-01-17 02:15:00,34.4,34.0,30.25,West,277,0.0,3.0,97,0.00,,,0.12,weatherlink.com 1.10,2013-01-17 07:15:00,
2013-01-17 02:30:00,34.4,34.0,30.26,WNW,297,0.0,3.0,97,0.00,,,0.12,weatherlink.com 1.10,2013-01-17 07:30:00,
2013-01-17 02:45:00,34.2,34.0,30.26,NNW,327,1.0,2.0,97,0.00,,,0.12,weatherlink.com 1.10,2013-01-17 07:45:00,
2013-01-17 03:00:00,33.6,33.0,30.28,West,275,0.0,3.0,97,0.00,,,0.12,weatherlink.com 1.10,2013-01-17 08:00:00,
2013-01-17 03:15:00,32.6,32.0,30.27,North,355,0.0,3.0,96,0.00,,,0.12,weatherlink.com 1.10,2013-01-17 08:15:00,
2013-01-17 03:30:00,32.5,32.0,30.26,NW,323,0.0,2.0,96,0.00,,,0.12,weatherlink.com 1.10,2013-01-17 08:30:00,
2013-01-17 03:45:00,32.2,31.0,30.27,WSW,254,0.0,3.0,94,0.00,,,0.12,weatherlink.com 1.10,2013-01-17 08:45:00,
2013-01-17 04:00:00,32.0,29.0,30.26,WNW,303,1.0,3.0,90,0.00,,,0.12,weatherlink.com 1.10,2013-01-17 09:00:00,
2013-01-17 04:15:00,32.0,28.0,30.27,West,274,0.0,2.0,84,0.00,,,0.12,weatherlink.com 1.10,2013-01-17 09:15:00,
2013-01-17 04:30:00,31.8,26.0,30.26,West,274,0.0,0.0,79,0.00,,,0.12,weatherlink.com 1.10,2013-01-17 09:30:00,
2013-01-17 04:45:00,31.7,26.0,30.26,West,273,0.0,0.0,79,0.00,,,0.12,weatherlink.com 1.10,2013-01-17 09:45:00,
2013-01-17 05:00:00,31.6,26.0,30.24,NNW,329,1.0,3.0,81,0.00,,,0.12,weatherlink.com 1.10,2013-01-17 10:00:00,
2013-01-17 05:15:00,31.4,26.0,30.24,West,275,0.0,5.0,81,0.00,,,0.12,weatherlink.com 1.10,2013-01-17 10:15:00,
2013-01-17 05:30:00,31.2,26.0,30.25,West,276,0.0,0.0,81,0.00,,,0.12,weatherlink.com 1.10,2013-01-17 10:30:00,
2013-01-17 05:45:00,31.1,27.0,30.25,West,276,0.0,0.0,83,0.00,,,0.12,weatherlink.com 1.10,2013-01-17 10:45:00,
2013-01-17 06:00:00,31.0,26.0,30.24,WNW,283,0.0,1.0,81,0.00,,,0.12,weatherlink.com 1.10,2013-01-17 11:00:00,
2013-01-17 06:15:00,31.0,25.0,30.26,WNW,283,0.0,0.0,79,0.00,,,0.12,weatherlink.com 1.10,2013-01-17 11:15:00,
2013-01-17 06:30:00,31.0,26.0,30.27,WNW,283,0.0,0.0,80,0.00,,,0.12,weatherlink.com 1.10,2013-01-17 11:30:00,
2013-01-17 06:45:00,31.0,26.0,30.26,WNW,283,0.0,0.0,81,0.00,,,0.12,weatherlink.com 1.10,2013-01-17 11:45:00,
2013-01-17 07:00:00,31.1,27.0,30.25,WNW,286,1.0,1.0,84,0.00,,,0.12,weatherlink.com 1.10,2013-01-17 12:00:00,
2013-01-17 07:15:00,31.1,26.0,30.28,WNW,286,0.0,0.0,81,0.00,,,0.12,weatherlink.com 1.10,2013-01-17 12:15:00,
2013-01-17 07:30:00,31.1,25.0,30.28,WNW,286,0.0,0.0,79,0.00,,,0.12,weatherlink.com 1.10,2013-01-17 12:30:00,
2013-01-17 07:45:00,31.2,27.0,30.27,WNW,287,0.0,0.0,83,0.00,,,0.12,weatherlink.com 1.10,2013-01-17 12:45:00,
2013-01-17 08:00:00,31.2,26.0,30.29,West,281,0.0,3.0,81,0.00,,,0.12,weatherlink.com 1.10,2013-01-17 13:00:00,
2013-01-17 08:15:00,31.3,26.0,30.28,WSW,238,0.0,2.0,82,0.00,,,0.12,weatherlink.com 1.10,2013-01-17 13:15:00,
2013-01-17 08:30:00,31.7,26.0,30.27,WNW,290,0.0,3.0,78,0.00,,,0.12,weatherlink.com 1.10,2013-01-17 13:30:00,
2013-01-17 08:46:00,31.6,26.0,30.29,West,269,0.0,5.0,79,0.00,,,0.12,weatherlink.com 1.10,2013-01-17 13:46:00,
2013-01-17 09:01:00,31.5,26.0,30.29,WNW,295,0.0,2.0,81,0.00,,,0.12,weatherlink.com 1.10,2013-01-17 14:01:00,
2013-01-17 09:16:00,31.1,25.0,30.32,WSW,239,0.0,5.0,78,0.00,,,0.12,weatherlink.com 1.10,2013-01-17 14:16:00,
2013-01-17 09:31:00,30.8,25.0,30.31,WNW,303,0.0,2.0,80,0.00,,,0.12,weatherlink.com 1.10,2013-01-17 14:31:00,
2013-01-17 09:46:00,30.8,26.0,30.28,West,279,0.0,4.0,81,0.00,,,0.12,weatherlink.com 1.10,2013-01-17 14:46:00,
2013-01-17 10:01:00,30.5,26.0,30.31,WSW,240,0.0,4.0,83,0.00,,,0.12,weatherlink.com 1.10,2013-01-17 15:01:00,
2013-01-17 10:16:00,30.5,27.0,30.28,North,360,2.0,4.0,86,0.00,,,0.12,weatherlink.com 1.10,2013-01-17 15:16:00,
2013-01-17 10:31:00,30.3,27.0,30.30,WNW,288,0.0,0.0,86,0.00,,,0.12,weatherlink.com 1.10,2013-01-17 15:31:00,
2013-01-17 10:46:00,30.2,27.0,30.30,WNW,284,0.0,5.0,87,0.00,,,0.12,weatherlink.com 1.10,2013-01-17 15:46:00,
2013-01-17 11:01:00,30.0,27.0,30.28,West,277,0.0,2.0,89,0.00,,,0.12,weatherlink.com 1.10,2013-01-17 16:01:00,
2013-01-17 11:16:00,29.6,26.0,30.29,West,281,0.0,0.0,86,0.00,,,0.12,weatherlink.com 1.10,2013-01-17 16:16:00,
2013-01-17 11:31:00,29.6,27.0,30.31,WNW,284,0.0,1.0,89,0.00,,,0.12,weatherlink.com 1.10,2013-01-17 16:31:00,
2013-01-17 11:46:00,29.7,27.0,30.29,WNW,288,0.0,2.0,89,0.00,,,0.12,weatherlink.com 1.10,2013-01-17 16:46:00,
2013-01-17 12:01:00,29.5,27.0,30.27,NW,325,2.0,3.0,89,0.00,,,0.12,weatherlink.com 1.10,2013-01-17 17:01:00,
2013-01-17 12:16:00,28.8,25.0,30.25,NW,321,0.0,3.0,87,0.00,,,0.12,weatherlink.com 1.10,2013-01-17 17:16:00,
2013-01-17 12:31:00,28.7,25.0,30.27,SW,225,0.0,0.0,85,0.00,,,0.12,weatherlink.com 1.10,2013-01-17 17:31:00,
2013-01-17 12:46:00,29.0,26.0,30.25,NW,311,0.0,1.0,87,0.00,,,0.12,weatherlink.com 1.10,2013-01-17 17:46:00,
2013-01-17 13:01:00,29.0,26.0,30.25,NNW,340,3.0,3.0,88,0.00,,,0.12,weatherlink.com 1.10,2013-01-17 18:01:00,
2013-01-17 13:16:00,28.4,26.0,30.23,WNW,296,0.0,3.0,92,0.00,,,0.12,weatherlink.com 1.10,2013-01-17 18:16:00,
2013-01-17 13:31:00,28.3,27.0,30.23,NNW,342,2.0,4.0,93,0.00,,,0.12,weatherlink.com 1.10,2013-01-17 18:31:00,
2013-01-17 13:46:00,28.4,27.0,30.26,WSW,248,0.0,3.0,94,0.00,,,0.12,weatherlink.com 1.10,2013-01-17 18:46:00,
2013-01-17 14:01:00,28.8,27.0,30.26,NNW,336,1.0,4.0,94,0.00,,,0.12,weatherlink.com 1.10,2013-01-17 19:01:00,
2013-01-17 14:16:00,28.9,27.0,30.27,WSW,255,0.0,3.0,94,0.00,,,0.12,weatherlink.com 1.10,2013-01-17 19:16:00,
2013-01-17 14:31:00,28.9,27.0,30.25,NW,310,0.0,6.0,94,0.00,,,0.12,weatherlink.com 1.10,2013-01-17 19:31:00,
2013-01-17 14:46:00,29.1,28.0,30.26,NW,305,0.0,2.0,95,0.00,,,0.12,weatherlink.com 1.10,2013-01-17 19:46:00,
2013-01-17 15:01:00,29.2,28.0,30.28,NW,319,0.0,2.0,95,0.00,,,0.12,weatherlink.com 1.10,2013-01-17 20:01:00,
2013-01-17 15:16:00,29.1,28.0,30.27,NW,309,0.0,3.0,94,0.00,,,0.12,weatherlink.com 1.10,2013-01-17 20:16:00,
2013-01-17 15:31:00,29.0,28.0,30.27,WNW,286,0.0,3.0,95,0.00,,,0.12,weatherlink.com 1.10,2013-01-17 20:31:00,
2013-01-17 15:46:00,29.0,28.0,30.28,North,355,0.0,3.0,95,0.00,,,0.00,weatherlink.com 1.10,2013-01-17 20:46:00,
2013-01-17 16:01:00,29.0,28.0,30.31,NW,325,0.0,1.0,95,0.00,,,0.00,weatherlink.com 1.10,2013-01-17 21:01:00,
2013-01-17 16:16:00,29.1,28.0,30.31,NW,325,0.0,0.0,95,0.00,,,0.00,weatherlink.com 1.10,2013-01-17 21:16:00,
2013-01-17 16:31:00,29.0,28.0,30.30,NW,326,0.0,0.0,95,0.00,,,0.00,weatherlink.com 1.10,2013-01-17 21:31:00,
2013-01-17 16:46:00,29.0,28.0,30.29,ESE,121,0.0,2.0,95,0.00,,,0.00,weatherlink.com 1.10,2013-01-17 21:46:00,
2013-01-17 17:01:00,29.3,28.0,30.30,ESE,104,0.0,1.0,95,0.00,,,0.00,weatherlink.com 1.10,2013-01-17 22:01:00,
2013-01-17 17:16:00,29.7,29.0,30.30,SW,234,0.0,3.0,95,0.00,,,0.00,weatherlink.com 1.10,2013-01-17 22:16:00,
2013-01-17 17:31:00,30.0,29.0,30.28,ESE,108,0.0,1.0,95,0.00,,,0.00,weatherlink.com 1.10,2013-01-17 22:31:00,
2013-01-17 17:46:00,30.3,29.0,30.30,NE,43,0.0,1.0,95,0.00,,,0.00,weatherlink.com 1.10,2013-01-17 22:46:00,
2013-01-17 18:01:00,30.6,29.0,30.33,WNW,294,0.0,1.0,95,0.00,,,0.00,weatherlink.com 1.10,2013-01-17 23:01:00,
2013-01-17 18:17:00,30.7,30.0,30.31,WNW,297,0.0,1.0,95,0.00,,,0.00,weatherlink.com 1.10,2013-01-17 23:17:00,
2013-01-17 18:32:00,30.6,29.0,30.31,NW,321,0.0,2.0,95,0.00,,,0.00,weatherlink.com 1.10,2013-01-17 23:32:00,
2013-01-17 18:47:00,30.6,29.0,30.33,West,271,0.0,2.0,95,0.00,,,0.00,weatherlink.com 1.10,2013-01-17 23:47:00,
2013-01-17 19:02:00,30.4,29.0,30.33,North,350,0.0,2.0,95,0.00,,,0.00,weatherlink.com 1.10,2013-01-18 00:02:00,
2013-01-17 19:17:00,29.9,29.0,30.32,North,355,0.0,2.0,95,0.00,,,0.00,weatherlink.com 1.10,2013-01-18 00:17:00,
2013-01-17 19:32:00,29.3,28.0,30.31,NNW,344,0.0,4.0,95,0.00,,,0.00,weatherlink.com 1.10,2013-01-18 00:32:00,
2013-01-17 19:47:00,29.3,28.0,30.31,NNW,347,0.0,2.0,96,0.00,,,0.00,weatherlink.com 1.10,2013-01-18 00:47:00,
2013-01-17 20:02:00,28.9,28.0,30.34,North,360,0.0,1.0,96,0.00,,,0.00,weatherlink.com 1.10,2013-01-18 01:02:00,
2013-01-17 20:17:00,28.7,28.0,30.32,NNW,348,2.0,2.0,96,0.00,,,0.00,weatherlink.com 1.10,2013-01-18 01:17:00,
2013-01-17 20:32:00,28.6,28.0,30.33,NNW,342,1.0,2.0,96,0.00,,,0.00,weatherlink.com 1.10,2013-01-18 01:32:00,
2013-01-17 20:47:00,28.3,27.0,30.36,WNW,302,0.0,4.0,96,0.00,,,0.00,weatherlink.com 1.10,2013-01-18 01:47:00,
2013-01-17 21:02:00,28.2,27.0,30.36,NNW,336,2.0,4.0,96,0.00,,,0.00,weatherlink.com 1.10,2013-01-18 02:02:00,
2013-01-17 21:17:00,28.1,27.0,30.37,WNW,286,0.0,4.0,96,0.00,,,0.00,weatherlink.com 1.10,2013-01-18 02:17:00,
2013-01-17 21:32:00,27.6,26.0,30.36,NE,40,1.0,4.0,95,0.00,,,0.00,weatherlink.com 1.10,2013-01-18 02:32:00,
2013-01-17 21:47:00,27.6,26.0,30.39,NW,313,1.0,4.0,95,0.00,,,0.00,weatherlink.com 1.10,2013-01-18 02:47:00,
2013-01-17 22:02:00,27.5,26.0,30.40,West,261,2.0,2.0,95,0.00,,,0.00,weatherlink.com 1.10,2013-01-18 03:02:00,
2013-01-17 22:17:00,27.3,26.0,30.41,North,360,0.0,5.0,95,0.00,,,0.00,weatherlink.com 1.10,2013-01-18 03:17:00,
2013-01-17 22:32:00,26.9,25.0,30.43,WNW,288,1.0,6.0,94,0.00,,,0.00,weatherlink.com 1.10,2013-01-18 03:32:00,
2013-01-17 22:47:00,26.7,25.0,30.44,North,350,0.0,2.0,94,0.00,,,0.00,weatherlink.com 1.10,2013-01-18 03:47:00,
2013-01-17 23:02:00,26.5,25.0,30.45,SW,223,1.0,5.0,94,0.00,,,0.00,weatherlink.com 1.10,2013-01-18 04:02:00,
2013-01-17 23:17:00,26.2,25.0,30.45,NNW,333,0.0,3.0,94,0.00,,,0.00,weatherlink.com 1.10,2013-01-18 04:17:00,